User: anonymous   Login
Location: Unspecified
(0.0000°N, 0.0000°E)
Time: 07:47:58
(UTC+00:00)
Language:

STARLINK-35639 - Orbit

View from above orbital plane
View from above orbital plane
View from above satellite
View from above satellite

Ground track
Ground track

The orbit is defined by the following mean orbital elements,

1 66382U          26145.59669053 +.00000000 +00000-0 +43040-3 0 00003
2 66382  53.1602 220.1325 0000853  51.0133 309.0943 15.30207820    04
Epoch (UTC): 25 May 2026 14:19:14
Eccentricity: 0.0000853
inclination: 53.1602°
perigee height: 475 km
apogee height: 476 km
right ascension of ascending node: 220.1325°
argument of perigee: 51.0133°
revolutions per day: 15.30207820
mean anomaly at epoch: 309.0943°

The dashed part of the orbit path shows where the satellite is in the earth's shadow,  

DLR